EW4221 Weather Reports


Display with metric or nautical units.
time (UTC)temp
F
wind
direction
speed
MPH
gust
MPH
rain 1hr
in
rain 24hr
in
rain mn
in
humidity
%
barometer
mb
20260903213009 79 342 0.0 2.0 0.00 1.06 0.19 81 1010.5
20260903211508 79 324 2.0 5.0 0.00 1.06 0.19 79 1010.8
20260903210008 79 340 2.0 5.0 0.00 1.06 0.19 79 1010.8
20260903204506 80 15 1.0 5.0 0.00 1.06 0.19 79 1010.8
20260903203006 80 355 2.0 5.0 0.00 1.06 0.19 79 1010.7
20260903201503 80 21 2.0 9.0 0.00 1.06 0.19 78 1011.0
20260903200116 80 343 3.0 9.0 0.00 1.06 0.19 78 1011.3
20260903194558 80 339 2.0 9.0 0.00 1.06 0.19 78 1011.4
20260903193058 79 355 4.0 9.0 0.00 1.06 0.19 78 1011.5
20260903191602 79 53 3.0 6.0 0.00 1.06 0.19 80 1011.5
20260903190054 78 122 2.0 5.0 0.00 1.06 0.19 80 1011.6
20260903184557 78 23 3.0 5.0 0.00 1.06 0.19 80 1011.7
20260903183056 78 21 3.0 6.0 0.00 1.06 0.19 80 1012.1
20260903181551 78 5 2.0 6.0 0.00 1.06 0.19 81 1012.1
20260903180052 79 317 4.0 8.0 0.00 1.06 0.19 79 1012.1
20260903174549 78 304 4.0 9.0 0.00 1.06 0.19 80 1012.4
20260903173048 78 350 3.0 6.0 0.00 1.06 0.19 80 1012.3
20260903171602 77 225 2.0 9.0 0.00 1.06 0.19 82 1012.6
20260903170051 76 248 3.0 5.0 0.00 1.06 0.19 82 1012.5
20260903164544 76 280 2.0 7.0 0.00 1.06 0.19 81 1012.7
20260903163045 78 298 5.0 8.0 0.00 1.06 0.19 78 1012.7
20260903161540 78 272 3.0 10.0 0.00 1.06 0.19 82 1012.8
20260903160038 78 300 6.0 12.0 0.00 1.06 0.19 78 1012.9
20260903154535 77 304 6.0 11.0 0.00 1.06 0.19 80 1012.9
20260903153032 76 243 3.0 10.0 0.00 1.06 0.19 82 1013.0
20260903151531 76 232 4.0 13.0 0.00 1.06 0.19 82 1013.1
20260903150039 75 254 5.0 13.0 0.00 1.06 0.19 84 1013.2
20260903144523 74 232 5.0 10.0 0.00 1.08 0.19 84 1013.2
20260903143031 73 179 3.0 7.0 0.00 1.08 0.19 86 1013.2
20260903141517 72 265 2.0 7.0 0.00 1.08 0.19 90 1013.0
20260903140012 71 256 5.0 9.0 0.00 1.08 0.19 91 1013.3
20260903134507 70 203 3.0 8.0 0.00 1.12 0.19 94 1013.2
20260903133005 69 222 2.0 6.0 0.00 1.12 0.19 95 1013.4
20260903131503 69 193 2.0 8.0 0.00 1.12 0.19 95 1013.5
20260903130001 68 200 3.0 9.0 0.00 1.12 0.19 96 1013.5
20260903124657 68 182 4.0 7.0 0.00 1.12 0.19 96 1013.4
20260903123056 68 212 3.0 8.0 0.00 1.12 0.19 96 1013.5
20260903121555 67 289 2.0 8.0 0.00 1.12 0.19 96 1013.4
20260903120101 67 209 3.0 7.0 0.00 1.12 0.19 96 1013.1
20260903114550 66 226 2.0 5.0 0.00 1.12 0.19 96 1012.9
20260903113055 66 228 2.0 9.0 0.00 1.12 0.19 96 1012.6
20260903111544 65 260 3.0 8.0 0.01 1.12 0.19 96 1012.6
20260903110041 66 252 2.0 13.0 0.01 1.12 0.19 96 1012.0
20260903104541 66 215 4.0 8.0 0.01 1.12 0.19 96 1011.8
20260903103040 66 246 2.0 6.0 0.01 1.12 0.19 96 1011.9
20260903101548 66 182 2.0 5.0 0.01 1.11 0.18 96 1012.0
20260903100039 66 234 3.0 8.0 0.01 1.11 0.18 96 1012.2
20260903094548 66 257 3.0 13.0 0.01 1.11 0.18 96 1012.1
20260903093042 67 222 5.0 11.0 0.01 1.11 0.18 97 1012.5
20260903091541 66 211 3.0 9.0 0.00 1.10 0.17 97 1012.7
20260903090035 66 212 3.0 7.0 0.00 1.10 0.17 97 1012.6
20260903084535 67 196 2.0 6.0 0.00 1.10 0.17 97 1012.4
20260903083035 66 205 3.0 7.0 0.00 1.10 0.17 97 1012.3
20260903081532 67 197 2.0 6.0 0.00 1.10 0.17 97 1011.8
20260903080047 67 274 2.0 8.0 0.00 1.10 0.17 97 1012.3
20260903074530 66 192 3.0 7.0 0.00 1.10 0.17 97 1012.2
20260903073032 66 196 2.0 6.0 0.01 1.10 0.17 97 1012.5
20260903071529 66 226 1.0 3.0 0.01 1.10 0.17 97 1012.5
20260903070028 66 218 2.0 8.0 0.02 1.10 0.17 97 1012.3
20260903064526 66 184 2.0 5.0 0.04 1.10 0.17 97 1012.6
20260903063025 66 178 3.0 8.0 0.06 1.09 0.16 97 1012.5
20260903061523 66 225 5.0 10.0 0.07 1.09 0.16 97 1012.6
20260903060022 65 248 3.0 19.0 0.06 1.08 0.15 97 1012.6
20260903054517 65 186 4.0 8.0 0.07 1.06 0.13 97 1012.7
20260903053016 65 163 3.0 8.0 0.06 1.03 0.10 97 1013.5
20260903051515 65 207 1.0 7.0 0.08 1.02 0.09 97 1013.3
20260903050021 65 194 3.0 8.0 0.08 1.02 0.09 97 1013.5
20260903044518 65 241 5.0 13.0 0.08 0.99 0.06 97 1014.0
20260903043012 65 175 1.0 4.0 0.11 0.97 0.04 96 1013.9
20260903041512 65 181 2.0 5.0 0.15 0.94 0.01 96 1013.8
20260903040008 65 194 3.0 10.0 0.18 0.93 0.00 96 1014.4
20260903034504 65 167 4.0 14.0 0.19 0.92 0.91 96 1015.8
20260903033002 65 238 3.0 5.0 0.15 0.86 0.85 96 1016.1
20260903031501 65 193 4.0 12.0 0.10 0.80 0.79 96 1014.9
20260903030001 65 189 3.0 7.0 0.09 0.76 0.75 96 1014.4
20260903024502 65 205 0.0 3.0 0.11 0.73 0.72 96 1014.1
20260903023103 65 182 0.0 4.0 0.28 0.71 0.70 95 1014.0
20260903021600 66 159 3.0 7.0 0.35 0.70 0.69 95 1015.2
20260903020059 66 192 4.0 11.0 0.33 0.67 0.66 95 1016.5
20260903014558 67 190 4.0 10.0 0.54 0.62 0.61 93 1016.2
20260903013058 69 355 12.0 30.0 0.34 0.41 0.40 91 1017.1
20260903010155 71 217 6.0 14.0 0.27 0.34 0.33 93 1014.0
20260903004557 72 247 2.0 10.0 0.01 0.08 0.07 92 1014.2
20260903003052 73 161 4.0 10.0 0.00 0.07 0.06 91 1013.1
20260903001602 73 163 3.0 12.0 0.00 0.07 0.06 90 1012.8
20260903000050 73 151 4.0 10.0 0.00 0.07 0.06 89 1013.1
20260902234549 74 139 3.0 10.0 0.00 0.08 0.06 88 1013.2
20260902233049 74 150 4.0 15.0 0.00 0.08 0.06 87 1013.4
20260902231547 75 169 5.0 9.0 0.00 0.08 0.06 86 1013.1
20260902230049 75 163 4.0 9.0 0.00 0.08 0.06 85 1012.9
20260902224553 76 153 4.0 12.0 0.00 0.08 0.06 84 1012.7
20260902223045 76 194 3.0 10.0 0.00 0.08 0.06 84 1013.0
20260902221549 77 138 5.0 12.0 0.00 0.08 0.06 82 1012.8
20260902220051 78 116 4.0 12.0 0.00 0.08 0.06 82 1012.8
20260902214540 79 158 4.0 10.0 0.00 0.09 0.06 81 1013.1